Regional Weather Roundup
Issued by NWS Newport/Morehead, NC

Current Version | Previous Version | Graphics & Text | Print | Product List | Glossary Off
Versions: 1 2 3 4 5 6 7 8 9 10 11 12 13 14 15 16 17 18 19 20 21 22 23 24 25 26 27 28 29 30 31 32 33 34 35 36 37 38 39 40 41 42 43 44 45 46 47 48 49 50

000
ASUS42 KMHX 050724
RWRMHX
WEATHER ROUNDUP FOR EASTERN NORTH CAROLINA
NATIONAL WEATHER SERVICE NEWPORT/MOREHEAD CITY NC
300 AM EDT TUE MAY 05 2015

NOTE: "FAIR" INDICATES FEW OR NO CLOUDS BELOW 12,000 FEET
WITH NO SIGNIFICANT WEATHER AND/OR OBSTRUCTIONS TO VISIBILITY

NCZ015>017-031-032-045>047-102-103-050800-
NORTH COAST

CITY           SKY/WX    TMP DP  RH WIND       PRES   REMARKS
EDENTON        CLEAR     61  55  81 SW6       30.33S
ELIZABETH CITY CLEAR     61  54  77 SW8       30.32F
KITTY HAWK     SUNNY     62  53  72 SW5       30.32S
MANTEO         CLEAR     62  54  73 SW6       30.34R

$$

NCZ045>047-081-094-103-104-050800-
CENTRAL COAST

CITY           SKY/WX    TMP DP  RH WIND       PRES   REMARKS
FRISCO         CLEAR     62  56  80 SW5       30.34F
SWANQUARTER      N/A     64 N/A N/A SW7       30.30S

$$

NCZ095-097-098-100-101-050800-
SOUTHERN COAST

CITY           SKY/WX    TMP DP  RH WIND       PRES   REMARKS
BEAUFORT       CLEAR     64  58  80 S6        30.34F
CEDAR ISLAND     N/A     63 N/A N/A S5        30.36F
JACKSONVILLE   CLEAR     55  53  93 CALM      30.33F
PINEY ISLAND   SUNNY    N/A N/A N/A S5        30.33F
WILMINGTON     CLEAR     56  54  93 CALM      30.32F


$$

NCZ011>013-027>030-043-044-078>080-089-090>093-098-050800-
COASTAL PLAIN

CITY           SKY/WX    TMP DP  RH WIND       PRES   REMARKS
AHOSKIE        CLEAR     59  50  72 S3        30.32S
CLINTON        CLEAR     56  54  95 CALM      30.34F
ELIZABETHTOWN  CLEAR     56  55  94 CALM      30.32F
GOLDSBORO      CLEAR     58  51  79 CALM      30.31F
GREENVILLE     CLEAR     59  54  82 SW3       30.34S
HAVELOCK       CLEAR     52  50  93 CALM        N/A
KENANSVILLE    CLEAR     51  49  94 CALM      30.35S
KINSTON        CLEAR     57  54  89 CALM      30.34S
NEW BERN       CLEAR     53  51  93 CALM      30.35S
RICHLANDS      CLEAR     52  46  82 CALM      30.34F
ROCKY MOUNT    CLEAR     60  52  74 S5        30.32F
WASHINGTON     CLEAR     56  53  88 S3        30.34S
WHITEVILLE     CLEAR     55  52  92 CALM      30.31F

$$

AMZ130-135-150-152-154-156-158-170-250-252-270-ANZ085-086-088-633-658-670-050800-
MARINE OBSERVATIONS

STATION/POSITION TIME  TEMP    WIND        PRES    WAVE   SWELL
                       AIR SEA DIR/SP/G            HT/PER HT/PER
                 (UTC) (F)     (DEG/KT/KT) (MB)    (FT/S) (FT/S)
CHESAPEAKE LIGHT 0700   64     220/ 19/ 20 1026.3
64 E VA BEACH    0650   62 60  230/ 12/ 14 1026.2    3/ 8   3/ 8
DUCK             0636   65 53  220/  8/ 11 1025.8
2 E DUCK         0611      56                N/A     2/11   2/11
OREGON INLET     0636   66 67  220/  7/  8 1027.0
13E OREGON INLT  0700      60                N/A     2/ 8   2/11
HATTERAS CG      0606   67 65  210/  5/  6 1027.0
DIAMOND BUOY     0650   73 77  190/ 14/ 17 1027.3    3/11   3/11
CAPE LOOKOUT     0700   67     180/  5/  5 1027.1
BEAUFORT LAB     0606   65 66  160/  4/  4 1026.7
27 SE WRIGHTSVLE 0700   69 71  160/ 10/ 12   N/A
5 SE WRIGHTSVLE  0608   69 69  190/  4/  6 1027.4
225 S CAPE HAT   0650   68 70  100/ 14/ 16 1026.3    5/ 9   3/ 9
41 SE CHARLESTON 0650   72 73  110/ 12/ 14 1025.2    4/ 6   3/ 6

$$


USA.gov is the U.S. government's official web portal to all federal, state and local government web resources and services.